Location: Bezirk Frauenfeld
(47.5599°N, 8.8998°E)
Time: 12:44:34
(UTC+00:00)

Daily predictions for brighter satellites

Satellite Brightness Start Highest point End
(mag) Time Altitude Azimuth Time Altitude Azimuth Time Altitude Azimuth
PAYLOAD B 4.3 16:38:55 10° SSE 16:44:20 58° ENE 16:49:49 10° N
FengYun 1-2 T 4.5 16:41:04 10° SSE 16:46:43 82° WSW 16:52:26 10° NNW
Cosmos 1908 3.8 16:44:00 10° SSW 16:47:49 63° W 16:51:40 10° N
CZ-2D R/B 3.6 16:45:01 10° SE 16:48:42 45° ENE 16:52:26 10° N
Cosmos 1939 Rocket 2.9 16:45:00 10° SSE 16:48:59 87° WSW 16:53:03 10° NNW
deb Chang Zheng 4 3.8 16:45:45 10° SE 16:49:45 43° ENE 16:53:47 10° N
Cosmos 371 Rocket 3.3 16:48:38 10° SSW 16:53:29 75° ESE 16:58:24 10° NNE
Cosmos 1821 Rocket 4.2 16:47:06 10° S 16:53:30 83° W 16:59:51 10° N
CZ-2C R/B 4.0 16:48:25 10° S 16:54:09 62° W 16:59:45 10° NNW
NOSS 8 (F) 4.3 16:51:02 10° SW 16:54:25 77° NW 16:57:22 10° NE
ATLAS 5 CENTAUR R/B 2.9 16:52:52 10° WSW 16:56:29 32° NW 17:00:35 10° NNE
GENESIS II 4.3 16:55:08 10° NNW 16:59:00 56° NE 17:02:52 10° SE
Cosmos 1934 Rocket 4.0 16:53:03 10° S 16:59:00 62° E 17:04:59 10° NNE
Cosmos 839 Rocket 4.3 16:52:20 10° NW 17:00:07 79° NE 17:06:30 10° SE
Cosmos 1455 4.0 16:58:36 10° ESE 17:00:10 12° E 17:01:45 10° ENE
Cosmos 1328 3.8 16:58:24 10° N 17:02:28 90° W 17:06:31 10° S
USA 215 3.3 16:56:18 10° NE 17:02:52 77° SE 17:09:25 10° SW
CORIOLIS 4.4 16:58:01 10° S 17:03:22 77° WSW 17:08:44 10° NNW
Tiangong 3.1 17:00:58 10° WSW 17:03:34 23° S 17:06:09 10° SE
NOSS 2-3 (E) 3.5 16:59:49 10° SW 17:03:51 81° SE 17:08:37 10° NE
Cosmos 1825 3.8 17:01:46 10° NNE 17:03:55 15° ENE 17:05:36 12° E
Cosmos 1602 Rocket 4.0 17:00:20 10° N 17:04:26 39° ENE 17:08:29 10° SE
Cosmos 2278 Rocket 3.9 17:04:46 10° N 17:07:58 15° NE 17:10:36 11° ENE
Okean O Rocket 1.8 17:04:32 10° SE 17:08:42 46° ENE 17:12:55 10° N
Cosmos 1300 2.6 17:05:35 10° S 17:09:21 75° E 17:13:10 10° NNE
USA 229 DEB 3.8 17:03:15 10° SSW 17:09:25 54° ESE 17:16:00 10° NE
Meteor 1-4 Rocket 2.8 17:06:12 10° SSE 17:09:26 39° E 17:12:41 10° NNE
USA 229 3.8 17:03:22 10° SSW 17:09:32 54° ESE 17:16:06 10° NE
Cosmos 44 3.8 17:04:33 10° SSW 17:09:47 51° ESE 17:14:57 10° NE
H-2A R/B 3.3 17:09:07 10° SE 17:12:40 27° ENE 17:16:07 10° N
COSMOS 2428 4.2 17:10:11 10° SE 17:13:02 14° E 17:14:03 14° E
COSMO-SKYMED 1 2.9 17:09:45 10° NNE 17:13:55 43° E 17:18:03 10° S
SL-16 R/B 2.3 17:11:01 10° SSW 17:16:42 87° WNW 17:22:25 10° NNE
MOS 1-B Rocket 4.2 17:13:13 10° NNE 17:19:21 48° E 17:24:50 10° S
ATLAS 3B R/B 4.2 17:13:43 10° W 17:19:22 28° NNW 17:25:15 10° NE
Cosmos 1953 4.3 17:17:18 10° SW 17:20:58 33° WNW 17:24:40 10° N
Cosmos 2228 3.9 17:20:17 10° SSE 17:24:01 28° E 17:27:48 10° NNE
Okean 1-7 Rocket 4.1 17:20:32 10° NNW 17:24:55 63° W 17:29:19 10° S
Cosmos 1825 Rocket 4.3 17:22:12 10° N 17:25:59 29° ENE 17:29:45 10° SE
Cosmos 2322 Rocket 2.2 17:21:06 10° SSW 17:26:42 86° ESE 17:32:22 10° NNE
FALCON 9 DEB 3.4 17:25:07 10° SSW 17:27:53 38° SE 17:28:58 27° E
Cosmos 220 Rocket 4.0 17:24:40 10° SSW 17:29:03 70° ESE 17:33:26 10° NNE
Cosmos 2219 Rocket 3.2 17:25:04 10° SSE 17:29:27 24° ESE 17:32:08 17° ENE
ARGOS 3.1 17:26:21 10° SSE 17:31:42 66° ENE 17:37:05 10° N
NOSS 3-1 (A) 3.2 17:26:36 10° SSW 17:31:52 75° SE 17:38:08 10° NE
X-37B 3.4 17:29:57 10° WSW 17:32:27 18° SSW 17:34:57 10° SSE
Cosmos 2123 Rocket 4.4 17:27:14 10° NNW 17:33:30 69° W 17:39:44 10° S
Cosmos 2360 Rocket 2.2 17:28:40 10° SSW 17:34:13 63° ESE 17:39:50 10° NNE
Cosmos 1758 Rocket 3.6 17:30:14 10° N 17:34:29 53° ENE 17:38:45 10° SSE
CENTAUR R/B 4.1 17:28:13 10° NW 17:34:33 28° NNE 17:39:34 17° ENE
SL-19 R/B 4.3 17:30:14 10° NNE 17:35:54 89° ESE 17:41:29 10° SSW
Okean-O 3.6 17:36:30 23° E 17:37:35 26° ENE 17:41:14 10° N
USA 267 3.4 17:31:07 10° SE 17:37:40 79° SW 17:44:14 10° NW
SKYMED 3 4.5 17:33:36 10° NNE 17:37:58 77° ESE 17:42:19 10° S
Cosmos 1626 Rocket 3.9 17:33:43 10° NNW 17:38:01 66° W 17:42:18 10° S
Cosmos 304 Rocket 4.0 17:33:38 10° SSW 17:38:25 74° WNW 17:43:15 10° NNE
Cosmos 1844 3.7 17:32:47 10° NNW 17:38:37 76° ENE 17:44:20 10° SSE
Cosmos 1953 Rocket 4.4 17:37:17 10° N 17:41:12 28° ENE 17:42:09 26° E
SL-8 R/B 3.7 17:38:55 10° W 17:43:43 81° N 17:46:16 28° E
FALCON 9 DEB 3.7 17:41:32 10° SW 17:44:45 41° SE 17:45:28 35° ESE
IRAS Rocket 4.4 17:39:47 10° NNE 17:45:06 46° E 17:50:21 10° S
Lacrosse 4 Rocket 3.2 17:42:23 10° NW 17:46:21 35° WSW 17:50:21 10° S
Landsat 5 3.6 17:42:31 10° NNE 17:47:01 84° ESE 17:51:32 10° SSW
Cosmos 1408 2.3 17:44:32 10° N 17:48:07 75° E 17:51:40 10° SSE
H-2A R/B 2.8 17:43:15 10° S 17:48:36 60° W 17:54:00 10° NNW
Cosmos 1459 Rocket 4.4 17:43:22 10° SSE 17:48:51 35° E 17:54:17 10° NNE
CZ-2C R/B 2.6 17:45:31 10° NNE 17:51:09 83° ESE 17:56:37 10° SSW
NOSS 2-3 (D) 4.4 17:47:43 10° WSW 17:51:43 48° NW 17:56:02 12° NNE
Cosmos 2333 Rocket 2.5 17:46:28 10° S 17:51:48 44° ESE 17:55:48 17° NE
In-Cosmos 22 Rocket 4.1 17:47:07 10° NNW 17:52:27 86° W 17:57:47 10° S
Spot 2 4.0 17:49:03 10° SSE 17:53:17 76° ENE 17:57:47 10° NNW
CZ-4B R/B 3.9 17:48:04 10° S 17:53:38 59° WSW 17:59:13 10° NNW
FALCON 9 DEB 2.5 17:51:00 10° SW 17:53:56 73° SSE 17:54:09 68° ESE
NOSS 3-1 (C) 4.0 17:49:22 10° WSW 17:54:40 53° NW 18:00:59 10° NE
SWARM A 4.4 17:52:53 10° S 17:56:09 71° W 17:59:28 10° N
Cosmos 1140 Rocket 3.4 17:53:56 10° NNW 17:59:08 68° ENE 18:03:17 16° SSE
Cosmos 2100 Rocket 4.2 17:54:24 10° SSE 18:00:24 47° E 18:06:28 10° NNE
SKYMED 2 4.1 17:57:43 10° N 18:02:01 61° WNW 18:06:18 10° SSW
H-2A R/B 3.1 18:03:56 28° SE 18:03:56 28° SE 18:06:19 10° SSE
Cosmos 1892 3.0 17:58:56 10° NNW 18:02:40 65° W 18:06:23 10° S
YAOGAN 1 2.4 17:59:44 10° SSE 18:04:03 77° ENE 18:08:24 10° N
Meteor 2-10 Rocket 3.9 17:59:12 10° SSW 18:04:40 70° WNW 18:09:57 10° N
CZ-4 R/B 1.3 18:01:43 10° SSE 18:05:46 80° ENE 18:09:56 10° N
Cosmos 407 Rocket 3.4 18:01:21 10° NNW 18:06:43 81° ENE 18:11:23 14° SSE
CSL-04 Rocket 4.0 18:05:03 33° ESE 18:06:53 43° ENE 18:12:07 10° N
Cosmos 2173 Rocket 4.1 18:01:39 10° SSE 18:07:36 50° E 18:13:39 10° NNE
DMSP B5D2-2 4.1 18:02:53 10° NNE 18:08:02 53° E 18:13:06 10° S
Cosmos 1023 Rocket 4.4 18:03:47 10° NNW 18:09:01 83° ENE 18:13:19 16° SSE
Cosmos 2322 3.7 18:06:03 10° S 18:11:37 56° ESE 18:14:41 26° NE
FALCON 9 DEB 3.5 18:08:41 10° SW 18:10:58 48° SW 18:10:58 48° SW
Lacrosse 5 3.9 18:08:44 10° SSE 18:09:45 14° SSE 18:09:45 14° SSE
Cosmos 1606 Rocket 3.4 18:10:16 10° S 18:14:42 71° E 18:19:09 10° NNE
Cosmos 1802 Rocket 4.2 18:09:03 10° SSE 18:14:47 44° E 18:20:35 10° NNE
SL-08 RB Rocket 3.9 18:10:29 10° S 18:15:02 72° WSW 18:19:42 10° NNW
NOSS 2-2 (D) 4.2 18:13:30 10° SSW 18:15:25 29° S 18:15:25 29° S
CZ-4C R/B 3.9 18:14:30 10° N 18:17:42 45° WNW 18:20:47 10° SW
Cosmos 676 Rocket 4.2 18:13:41 10° NNW 18:18:46 47° ENE 18:19:05 47° ENE
Cosmos 1954 Rocket 4.1 18:14:50 10° NNW 18:19:58 51° ENE 18:20:27 49° E
Cosmos 1844 Rocket 3.7 18:15:07 10° NW 18:20:25 45° WSW 18:25:41 10° S
FALCON 9 DEB 4.3 18:21:09 10° WSW 18:22:57 33° WSW 18:22:57 33° WSW
NOSS 2-2 (E) 3.7 18:22:06 10° SW 18:24:29 45° SSW 18:24:29 45° SSW
DMSP B5D1-3 4.4 18:20:54 10° NNE 18:26:04 77° ESE 18:31:14 10° S
IRS-P2 Rocket 4.4 18:33:30 58° SE 18:34:26 73° ENE 18:39:39 10° NNW
Cosmos 1455 2.8 18:31:32 10° SSW 18:35:15 54° WNW 18:37:11 26° N
Cosmos 1825 3.1 18:36:02 10° NNW 18:39:40 47° W 18:40:25 40° SW
ATLAS 5 CENTAUR R/B 4.1 18:40:22 10° NW 18:42:36 13° N 18:44:11 12° N
Tsikada Rocket 4.3 18:36:49 10° N 18:41:48 45° NE 18:41:48 45° NE
Cosmos 1726 Rocket 3.6 18:39:03 10° SSW 18:43:30 76° W 18:43:31 76° WNW
Okean O Rocket 4.2 18:42:07 10° SW 18:45:18 20° W 18:48:31 10° NW
USA 215 3.8 18:42:35 29° NE 18:45:42 50° NNW 18:51:58 10° W
H-2A R/B 4.2 18:44:18 10° SSW 18:48:02 31° W 18:51:42 10° NW
Cosmos 2016 Rocket 4.0 18:43:20 10° S 18:50:22 59° NE 18:55:32 10° NNE
Cosmos 2346 Rocket 4.5 18:46:54 10° N 18:53:12 81° W 18:57:09 24° S
Cosmos 2278 Rocket 2.5 18:47:41 10° NNW 18:52:28 54° NNE 18:52:28 54° NNE
Cosmos 1190 Rocket 4.5 18:48:35 10° NNW 18:53:42 58° WSW 18:55:18 40° SSW
Cosmos 2056 Rocket 3.7 18:50:31 10° SSW 18:54:41 60° SSW 18:54:41 60° SSW
COSMOS 2428 2.6 18:50:43 10° SSW 18:56:09 82° S 18:56:09 82° S
BREEZE-M DEB (TANK) 4.1 18:50:54 10° WNW 19:00:00 75° NW 19:00:00 75° NW
BREEZE M DEB (TANK) 4.4 18:35:05 10° W 19:02:52 81° N 19:05:15 54° ENE
CZ-4C R/B 3.7 19:06:29 10° SSW 19:07:57 21° SSW 19:07:57 21° SSW
Cosmos 2322 Rocket 4.4 19:07:21 10° W 19:11:31 21° NW 19:15:43 10° N
ATLAS 3B R/B 4.4 19:07:25 10° NW 19:12:31 21° N 19:14:07 20° NNE
Cosmos 2219 Rocket 2.6 19:07:28 10° SW 19:12:58 59° WNW 19:13:56 51° NNW
Okean-O 3.9 19:14:05 38° W 19:14:05 38° W 19:18:03 10° NNW
Cosmos 2360 Rocket 4.1 19:13:53 10° WSW 19:18:39 27° NW 19:23:21 10° N
ATLAS 5 CENTAUR R/B 4.4 19:06:57 10° WNW 19:19:42 30° NNW 19:21:28 26° NNE
NOSS 3-2 (C) 4.4 19:15:19 10° NW 19:21:43 46° NNE 19:21:43 46° NNE
Cosmos 2061 Rocket 4.4 19:17:54 10° SSW 19:25:32 59° NNW 19:30:43 10° N
CENTAUR R/B 3.3 19:19:06 10° NW 19:26:45 59° NE 19:26:45 59° NE
Cosmos 2333 Rocket 3.5 19:30:59 10° WSW 19:36:11 36° NW 19:37:52 30° NNW
Cosmos 1943 Rocket 4.1 19:31:08 10° NNW 19:33:02 19° N 19:33:02 19° N
NOSS 3-2 (A) 4.1 19:33:02 10° NW 19:39:32 68° N 19:39:32 68° N
USA 238 DEB 4.4 19:45:13 10° NW 19:50:29 49° NNW 19:50:29 49° NNW
USA 238 4.4 19:45:19 10° NW 19:50:34 49° NNW 19:50:34 49° NNW
